Wind_Speed
44 44 45 45 46 46 46 46 47 47 46 45 46 45 45 46 46 46 47 47 46 45 46 47 47 47 48 48 48 48 48 48 48 48 48 48 47 47
45 45 46 46 46 47 47 47 48 48 47 46 46 46 45 45 46 46 46 46 46 46 47 48 48 48 48 48 48 47 47 48 48 48 48 48 48 48
45 45 45 46 47 47 48 48 48 48 47 46 46 46 46 46 46 46 45 46 46 47 47 47 47 48 48 48 47 47 47 48 48 48 49 48 48 49
45 45 46 46 47 47 48 48 48 47 47 47 47 47 47 47 47 47 47 47 48 48 48 48 49 49 49 49 48 48 47 47 47 48 48 48 48 48
46 46 47 47 47 47 48 47 47 47 47 47 46 47 47 47 48 48 49 48 48 48 49 49 49 49 49 48 48 47 47 46 47 47 48 48 48 48
44 46 46 46 46 47 47 46 47 47 46 46 46 46 47 46 47 48 48 48 48 49 49 49 48 48 48 47 47 47 47 47 46 46 47 47 48 48
44 44 44 43 43 44 45 45 46 46 46 46 46 46 46 46 46 47 47 48 48 48 48 48 47 47 47 48 48 47 47 47 46 46 46 47 47 47
42 42 42 43 43 44 44 44 44 44 45 46 46 46 46 46 47 46 46 47 46 46 47 47 47 47 46 46 47 47 47 46 46 45 45 45 46 46
42 41 41 41 42 42 42 43 43 43 44 44 44 44 45 45 45 45 46 46 46 46 46 46 45 45 45 45 46 46 45 45 45 45 45 44 45 45
42 42 41 41 41 41 41 42 42 42 43 43 43 43 43 43 43 44 44 45 45 46 46 45 45 45 45 45 45 45 45 44 44 44 44 45 45 46
42 41 41 41 41 40 40 41 41 42 43 42 42 42 42 42 42 43 43 44 44 44 44 45 44 44 44 44 44 44 44 43 43 44 44 44 44 44
40 40 41 41 41 41 42 42 42 42 41 41 41 41 41 41 41 41 41 42 41 41 41 41 40 40 41 41 42 42 42 42 42 43 43 43 43 42
38 38 39 39 40 40 41 40 40 41 41 40 40 40 39 39 39 39 39 39 39 38 38 38 37 37 38 39 40 40 41 41 42 42 43 43 42 41
37 38 38 38 39 39 40 40 40 39 39 38 38 38 38 38 38 38 38 38 38 38 37 37 37 38 38 38 38 39 40 40 41 41 41 40 39 39
36 37 38 38 38 38 38 38 38 38 37 37 36 36 37 36 36 37 37 38 38 37 37 37 37 37 37 38 38 38 39 39 39 39 38 37 36 36
36 36 37 37 37 36 36 36 36 36 35 35 35 35 35 35 35 36 36 36 36 36 36 36 37 37 37 37 38 38 38 38 37 37 36 34 33 34
35 36 36 35 35 35 34 34 34 34 34 33 33 33 33 33 33 34 34 34 35 35 35 35 36 37 37 37 37 36 36 36 36 36 35 34 33 34
33 32 32 32 32 32 32 32 32 32 32 32 32 32 32 32 32 32 33 33 34 34 33 34 35 35 36 36 36 35 35 35 34 34 34 33 33 34
30 30 30 30 30 30 30 31 31 31 31 31 31 31 31 32 32 32 32 32 33 33 33 33 33 34 34 34 34 34 33 33 34 34 33 32 32 32
29 29 30 30 30 29 29 29 30 30 31 31 31 31 31 31 31 32 31 32 32 32 32 32 32 32 32 31 31 32 32 32 32 32 32 31 30 31
29 29 29 29 28 28 28 28 29 29 30 31 31 31 31 31 31 31 30 30 30 30 31 30 30 30 30 29 29 28 29 29 29 29 29 29 29 29
27 27 28 28 27 28 28 28 29 29 30 30 31 31 30 30 30 30 30 30 30 30 30 29 29 28 27 27 26 26 26 27 27 28 28 28 28 28
26 27 27 27 26 27 27 28 28 29 29 30 30 30 31 31 30 30 30 30 29 29 29 28 27 27 26 26 26 25 25 25 26 27 27 26 26 26
Wind_Direction
262 263 264 266 268 269 269 270 270 270 271 273 274 275 277 278 278 276 275 274 274 274 274 274 275 275 275 274 274 274 274 273 273 274 276 276 275 275
263 264 264 265 267 268 269 270 271 271 271 273 274 275 276 277 278 276 275 274 273 274 275 274 275 275 275 275 274 274 274 273 273 273 274 275 275 275
264 264 265 265 266 267 269 270 272 272 273 273 274 275 276 277 277 277 276 275 274 275 275 275 274 274 274 275 274 274 274 274 274 274 274 274 275 275
264 265 266 267 267 268 269 271 271 272 273 273 274 275 276 276 277 276 276 276 275 275 275 275 276 276 275 275 274 275 276 276 275 275 274 273 274 274
265 265 267 268 268 268 269 270 270 271 272 273 274 274 274 275 276 276 276 276 276 277 277 276 277 277 276 275 275 275 275 275 275 275 274 273 274 274
266 267 268 268 267 267 268 269 270 271 272 274 274 274 273 275 276 276 276 277 277 277 277 277 276 276 275 274 274 274 274 275 275 275 275 274 274 275
267 268 269 268 268 267 268 269 270 271 272 273 273 272 273 274 275 276 277 277 277 278 277 277 277 277 276 275 275 275 274 275 274 274 274 275 275 274
267 268 268 268 267 268 269 270 271 272 273 273 272 273 274 275 275 276 277 278 278 279 278 278 277 276 276 276 276 276 275 275 274 273 274 274 274 274
266 268 268 267 267 268 268 270 272 273 274 274 274 275 276 276 276 276 277 278 279 279 279 278 277 277 277 277 276 276 275 274 274 274 274 275 275 275
267 267 268 268 269 270 270 271 272 273 274 275 275 276 276 277 277 277 278 279 280 280 280 279 277 277 277 276 276 276 275 274 274 274 276 276 277 277
267 267 268 269 270 270 272 272 273 274 275 275 276 276 277 277 278 277 278 280 281 281 280 280 279 277 276 276 277 277 277 276 275 274 276 277 277 278
268 268 269 271 271 272 273 274 275 275 275 275 276 275 275 275 277 278 279 280 280 281 282 281 279 278 276 276 276 276 276 276 275 276 276 277 277 278
269 269 270 272 273 274 274 275 276 275 274 274 274 274 275 275 276 277 279 280 281 281 281 281 280 280 280 278 277 275 276 276 276 276 276 277 277 277
269 270 272 273 274 275 275 275 275 274 274 274 275 275 275 275 277 278 280 280 281 282 282 281 281 280 280 280 279 277 277 277 277 278 278 278 278 278
269 271 274 275 275 276 274 274 274 274 274 274 275 276 276 277 277 278 280 281 281 282 283 282 281 281 281 280 279 278 278 278 278 278 278 277 277 277
270 271 273 274 274 274 274 274 274 273 274 274 275 275 276 277 277 278 280 281 281 282 282 281 282 281 280 280 280 279 278 277 276 277 277 276 276 276
271 272 274 273 273 273 273 273 272 272 273 274 275 275 276 276 278 280 280 281 282 283 283 282 282 282 281 280 279 279 278 276 276 276 276 277 275 275
272 273 272 272 272 273 273 272 272 272 272 274 275 275 275 276 279 281 282 282 283 284 284 283 283 283 282 281 279 278 277 276 275 276 276 277 277 277
272 272 272 271 272 272 271 271 271 271 271 272 274 275 276 277 279 281 282 283 284 285 285 284 284 284 283 281 280 279 277 277 277 277 278 277 277 278
270 270 271 271 270 270 270 271 271 271 271 273 274 275 277 278 279 281 282 283 285 285 285 284 284 285 285 283 280 279 279 279 278 278 277 277 277 277
269 269 270 271 270 269 269 270 273 273 273 273 274 275 277 279 280 282 281 283 285 285 284 284 285 286 286 283 281 281 280 280 280 279 278 277 277 277
269 269 271 271 270 270 270 272 273 274 274 274 274 275 276 278 280 280 281 283 284 285 284 284 285 287 287 285 284 282 281 280 282 282 281 280 278 276
270 270 272 271 270 271 272 273 275 276 275 275 276 276 277 278 281 281 282 283 284 284 285 285 284 286 288 288 286 284 282 281 281 282 282 281 278 275
Height
5687 5688 5689 5690 5690 5690 5691 5691 5692 5692 5693 5692 5691 5689 5688 5686 5684 5683 5682 5680 5679 5678 5678 5677 5676 5674 5673 5672 5671 5670 5669 5668 5667 5667 5666 5665 5664 5663
5675 5676 5677 5677 5677 5678 5678 5678 5678 5679 5680 5680 5678 5677 5675 5673 5672 5670 5669 5668 5667 5666 5665 5664 5662 5661 5660 5658 5657 5656 5655 5654 5653 5653 5652 5651 5650 5649
5663 5664 5664 5664 5665 5665 5665 5665 5665 5666 5666 5667 5666 5664 5662 5661 5659 5657 5656 5655 5654 5652 5651 5650 5649 5647 5646 5645 5644 5643 5642 5641 5640 5639 5638 5637 5636 5636
5651 5651 5652 5652 5652 5652 5652 5652 5652 5652 5653 5653 5653 5651 5650 5648 5647 5645 5643 5642 5641 5639 5638 5637 5635 5634 5632 5631 5630 5629 5628 5627 5626 5625 5624 5624 5623 5621
5639 5639 5639 5639 5639 5639 5639 5639 5639 5639 5639 5639 5639 5638 5637 5635 5633 5632 5630 5629 5627 5626 5624 5623 5622 5620 5618 5617 5616 5615 5614 5613 5612 5611 5609 5609 5608 5607
5626 5626 5626 5626 5626 5626 5626 5627 5626 5626 5626 5626 5626 5625 5623 5621 5619 5618 5617 5616 5614 5612 5610 5609 5607 5606 5604 5604 5602 5601 5600 5598 5597 5596 5595 5595 5594 5593
5614 5614 5614 5614 5613 5614 5614 5614 5614 5613 5613 5612 5612 5611 5610 5608 5607 5605 5604 5602 5600 5598 5597 5595 5594 5592 5590 5589 5587 5586 5585 5584 5584 5583 5582 5581 5580 5579
5603 5602 5602 5602 5602 5601 5601 5601 5601 5600 5600 5599 5598 5598 5597 5595 5593 5592 5590 5589 5588 5586 5583 5581 5579 5578 5576 5575 5573 5572 5571 5571 5570 5569 5568 5567 5566 5564
5591 5590 5590 5589 5589 5589 5589 5589 5588 5587 5587 5586 5585 5584 5583 5582 5581 5579 5577 5575 5573 5571 5569 5567 5565 5564 5562 5561 5560 5559 5558 5557 5556 5555 5554 5553 5552 5550
5578 5578 5578 5578 5577 5577 5577 5577 5576 5575 5575 5574 5573 5571 5570 5568 5566 5565 5563 5561 5559 5557 5555 5554 5552 5550 5549 5547 5546 5545 5544 5544 5543 5542 5541 5540 5538 5537
5566 5566 5566 5566 5566 5565 5565 5565 5564 5563 5562 5561 5560 5558 5557 5555 5553 5552 5550 5548 5546 5544 5542 5540 5539 5537 5536 5534 5533 5532 5531 5530 5530 5529 5528 5526 5525 5524
5555 5555 5555 5554 5554 5553 5553 5552 5552 5551 5550 5549 5547 5546 5544 5543 5541 5540 5538 5536 5534 5532 5530 5528 5526 5524 5523 5522 5520 5519 5518 5517 5517 5516 5515 5513 5512 5511
5544 5544 5544 5543 5542 5542 5541 5540 5540 5539 5538 5537 5535 5534 5532 5531 5529 5528 5526 5524 5522 5521 5519 5516 5514 5512 5510 5510 5509 5507 5506 5505 5504 5503 5502 5501 5499 5498
5534 5533 5533 5532 5531 5530 5529 5529 5528 5527 5526 5525 5524 5523 5521 5520 5519 5517 5515 5513 5511 5509 5507 5505 5503 5501 5500 5498 5497 5496 5494 5493 5492 5491 5490 5488 5487 5486
5522 5522 5522 5521 5520 5519 5518 5517 5516 5515 5515 5514 5513 5512 5511 5510 5508 5506 5504 5502 5500 5498 5496 5494 5492 5490 5488 5487 5486 5484 5483 5481 5480 5479 5478 5477 5476 5475
5511 5511 5510 5510 5509 5508 5507 5506 5505 5505 5504 5504 5503 5502 5501 5499 5497 5496 5494 5491 5489 5487 5485 5483 5481 5479 5477 5475 5474 5472 5471 5470 5469 5468 5467 5466 5465 5463
5500 5500 5500 5499 5498 5497 5496 5495 5495 5495 5494 5494 5493 5492 5490 5489 5487 5485 5483 5481 5479 5477 5475 5472 5470 5468 5466 5464 5463 5461 5460 5459 5458 5457 5456 5455 5454 5453
5490 5490 5489 5488 5488 5487 5487 5486 5486 5485 5485 5484 5483 5482 5481 5479 5478 5476 5474 5472 5470 5467 5465 5462 5460 5457 5455 5453 5452 5450 5449 5448 5447 5446 5445 5444 5444 5442
5481 5480 5480 5479 5479 5478 5478 5477 5477 5476 5476 5475 5474 5472 5471 5469 5468 5466 5464 5462 5460 5457 5454 5452 5449 5447 5445 5443 5441 5439 5438 5437 5436 5435 5434 5433 5433 5432
5471 5471 5471 5470 5469 5469 5468 5468 5468 5467 5466 5466 5464 5463 5462 5460 5458 5457 5455 5452 5450 5447 5445 5442 5440 5437 5435 5433 5432 5430 5428 5427 5426 5425 5424 5423 5422 5422
5463 5462 5462 5461 5461 5460 5460 5459 5459 5458 5457 5456 5455 5454 5452 5451 5449 5447 5445 5443 5441 5438 5436 5433 5430 5428 5425 5423 5422 5421 5419 5417 5416 5415 5414 5413 5412 5412
5454 5453 5453 5452 5452 5451 5451 5450 5450 5449 5448 5447 5446 5444 5443 5441 5440 5438 5436 5434 5431 5429 5427 5424 5421 5419 5417 5415 5413 5412 5410 5408 5407 5405 5404 5404 5403 5403
5445 5445 5444 5444 5443 5443 5442 5442 5441 5440 5439 5437 5436 5435 5434 5432 5430 5428 5426 5424 5422 5420 5417 5415 5413 5411 5408 5406 5405 5403 5402 5400 5399 5397 5396 5395 5394 5394